Weather History for KLTS - August, 2014

Change the Weather History Date:

Wednesday, August 27, 2014

  Actual Average Record
Temperature  
Mean Temperature 86 °F -  
Max Temperature 99 °F 92 °F 108 °F (2011)
Min Temperature 73 °F 68 °F 61 °F (2010)
Cooling Degree Days 20    
Growing Degree Days 36 (Base 50)    
Moisture  
Dew Point 65 °F    
Average Humidity 51    
Maximum Humidity 80    
Minimum Humidity 29    
Precipitation  
Precipitation 0.00 in - - ()
Sea Level Pressure  
Sea Level Pressure 29.99 in    
Wind  
Wind Speed 10 mph (SE)    
Max Wind Speed 14 mph    
Max Gust Speed 22 mph    
Visibility 10 miles    
Events      
Averages and records for this station are not official NWS values.
T = Trace of Precipitation, MM = Missing Value Source: NWS Daily Summary

Daily Weather History Graph

Daily Weather History Graph

Search for Another Location

Airport or City:

Trip Planner

Search our weather history database for the weather conditions in past years. The results will help you decide how hot, cold, wet, or windy it might be!

Date:

Astronomy

Aug. 27, 2014 Rise Set
Actual Time 7:06 AM CDT 8:10 PM CDT
Civil Twilight 6:40 AM CDT 8:35 PM CDT
Nautical Twilight 6:09 AM CDT 9:06 PM CDT
Astronomical Twilight 5:37 AM CDT 9:38 PM CDT
Moon 8:57 AM CDT (8/27) 9:10 PM CDT (8/27)
Length of Visible Light 13h 55m
Length of Day
13h 03m
Waxing Crescent, 4% of the Moon is Illuminated
Aug 27
Waxing Crescent
Sep 2
First Quarter
Sep 8
Full
Sep 15
Last Quarter
Sep 24
New

Hourly Weather History & Observations

Time (CDT) Temp. Heat Index Dew Point Humidity Pressure Visibility Wind Dir Wind Speed Gust Speed Precip Events Conditions
12:58 AM 82.6 °F 84.9 °F 66.2 °F 58% 30.00 in 10.0 mi ESE 11.5 mph - N/A   Clear
1:58 AM 80.8 °F 82.9 °F 66.0 °F 61% 30.00 in 10.0 mi ESE 11.5 mph - N/A   Clear
2:58 AM 79.0 °F - 66.0 °F 64% 30.01 in 10.0 mi SE 8.1 mph - N/A   Clear
3:58 AM 77.2 °F - 66.0 °F 68% 30.00 in 10.0 mi ESE 8.1 mph - N/A   Clear
4:58 AM 76.5 °F - 66.6 °F 71% 30.00 in 10.0 mi SE 8.1 mph - N/A   Clear
5:58 AM 74.8 °F - 66.9 °F 76% 30.00 in 10.0 mi ESE 5.8 mph - N/A   Clear
6:58 AM 73.0 °F - 66.6 °F 80% 30.02 in 10.0 mi ESE 4.6 mph - N/A   Clear
7:58 AM 75.2 °F - 67.5 °F 77% 30.03 in 10.0 mi ESE 6.9 mph - N/A   Clear
8:58 AM 80.1 °F 82.7 °F 68.2 °F 67% 30.04 in 10.0 mi SE 6.9 mph - N/A   Clear
9:58 AM 84.6 °F 88.2 °F 68.7 °F 59% 30.05 in 10.0 mi SE 9.2 mph - N/A   Clear
10:58 AM 87.8 °F 91.4 °F 68.2 °F 52% 30.05 in 10.0 mi SE 9.2 mph - N/A   Clear
11:58 AM 91.6 °F 94.8 °F 66.9 °F 44% 30.04 in 10.0 mi ESE 13.8 mph - N/A   Clear
12:57 PM 95.0 °F 97.0 °F 64.4 °F 36% 30.07 in 10.0 mi SSE 11.5 mph 18.4 mph N/A   Clear
12:58 PM 94.1 °F 95.9 °F 64.4 °F 37% 30.02 in 10.0 mi SSE 12.7 mph 18.4 mph N/A   Clear
1:58 PM 95.2 °F 96.8 °F 63.3 °F 35% 30.00 in 10.0 mi ESE 11.5 mph - N/A   Clear
2:58 PM 97.0 °F 97.8 °F 61.9 °F 31% 29.97 in 10.0 mi SE 13.8 mph 21.9 mph N/A   Partly Cloudy
3:58 PM 97.3 °F 97.9 °F 61.2 °F 30% 29.94 in 10.0 mi SE 12.7 mph - N/A   Partly Cloudy
4:58 PM 98.2 °F 98.9 °F 60.8 °F 29% 29.92 in 10.0 mi SE 10.4 mph 18.4 mph N/A   Partly Cloudy
5:58 PM 94.6 °F 94.7 °F 60.3 °F 32% 29.91 in 10.0 mi SSE 10.4 mph - N/A   Clear
6:58 PM 93.4 °F 93.2 °F 60.6 °F 33% 29.90 in 10.0 mi SE 9.2 mph - N/A   Clear
7:58 PM 90.5 °F 91.1 °F 62.2 °F 39% 29.92 in 10.0 mi ESE 8.1 mph - N/A   Clear
8:58 PM 88.0 °F 88.7 °F 63.1 °F 43% 29.93 in 10.0 mi ESE 10.4 mph - N/A   Partly Cloudy
9:58 PM 86.4 °F 87.3 °F 63.3 °F 46% 29.95 in 10.0 mi ESE 10.4 mph - N/A   Clear
10:58 PM 84.7 °F 86.1 °F 64.0 °F 50% 29.95 in 10.0 mi SE 12.7 mph - N/A   Partly Cloudy
11:58 PM 83.5 °F 84.9 °F 64.4 °F 52% 29.95 in 10.0 mi SE 11.5 mph - N/A   Clear